(314830) = 2006 US103 = 2006 VM156

Discovered at Kitt Peak on 2006-10-18 by Spacewatch.

Orbit

Orbit type: Main Belt

Note: WebGL enabled browser required.

epoch2023-09-13.0
epoch JD2460200.5
perihelion date2020-06-22.91397
perihelion JD2459023.41397
argument of perihelion (°)9.41205
ascending node (°)63.05610
inclination (°)5.94376
eccentricity0.0259370
perihelion distance (AU)2.6299066
Tisserand w.r.t. Jupiter3.4
ΔV w.r.t. Earth (km/sec)10.3
semimajor axis (AU)2.6999348
mean anomaly (°)261.50628
mean daily motion (°/day)0.22216410
aphelion distance (AU)2.770
period (years)4.44
P-vector [x]0.30201975
P-vector [y]0.86776312
P-vector [z]0.39467865
Q-vector [x]-0.94882171
Q-vector [y]0.23353764
Q-vector [z]0.21259712
absolute magnitude17.14
phase slope0.15
uncertainty0
referenceMPEC 2023-Q78
observations used187
oppositions12
arc length (days)7562
first opposition used2002
last opposition used2023
residual rms (arc-secs)0.73
perturbers coarse indicatorM-v
perturbers precise indicator003Ek
first observation date used2002-12-06.0
last observation date used2023-08-20.0
computer nameMPCLINUX
JD of orbit computation2456877.948694
perihelion JD uncertainty (days)1.0845E-03
argument of perihelion uncertainty (°)2.4034E-04
ascending node uncertainty (°)6.1907E-05
inclination uncertainty (°)5.3059E-06
eccentricity uncertainty 5.5104E-08
perihelion distance uncertainty (AU)1.7973E-07
Minimum Orbit Intersection Distances (in AU)
for orbit epoch: 2460200.5, reference: E2023-Q78
Mercury2.30247
Venus1.90911
Earth1.64299
Mars1.02069
Jupiter2.29424
Saturn6.42711
Uranus15.7524
Neptune27.1884

Observations

199 total observations over interval: 2002 12 06.45391 – 2023 09 14.291321
These data are available for download (format description).

Date (UT) J2000 RA J2000 Dec Magn Location Ref
2002 12 06.45391 06 45 48.71 +27 14 24.2 20.5 R 695 – Kitt Peak MPS 239162
2002 12 06.52302 06 45 45.41 +27 14 39.3   695 – Kitt Peak MPS 239162
2006 10 18.39146 03 21 50.21 +15 03 11.7 21.2 V 691 – Steward Observatory, Kitt Peak-Spacewatch MPS 184328
2006 10 18.40885 03 21 49.49 +15 03 10.5 21.2 V 691 – Steward Observatory, Kitt Peak-Spacewatch MPS 184328
2006 10 18.42625 03 21 48.66 +15 03 09.3 20.9 V 691 – Steward Observatory, Kitt Peak-Spacewatch MPS 184328
2006 10 22.36441 03 18 55.60 +14 58 06.1 20.7 V 691 – Steward Observatory, Kitt Peak-Spacewatch MPS 184328
2006 10 22.38177 03 18 54.78 +14 58 04.5 20.7 V 691 – Steward Observatory, Kitt Peak-Spacewatch MPS 184328
2006 10 22.40601 03 18 53.58 +14 58 02.5 21.3 V 691 – Steward Observatory, Kitt Peak-Spacewatch MPS 184328
2006 11 12.36564 02 59 50.85 +14 23 20.0 20.2 V G96 – Mt. Lemmon Survey MPC 58484
2006 11 12.37009 02 59 50.60 +14 23 19.2 20.1 V G96 – Mt. Lemmon Survey MPC 58484
2006 11 12.37457 02 59 50.31 +14 23 19.1 20.0 V G96 – Mt. Lemmon Survey MPC 58484
2006 11 12.37903 02 59 50.02 +14 23 18.6 20.1 V G96 – Mt. Lemmon Survey MPC 58484
2006 12 16.23762 02 35 16.40 +14 00 59.0 21.5 V G96 – Mt. Lemmon Survey MPS 199511
2006 12 16.24207 02 35 16.29 +14 00 58.7 21.7 V G96 – Mt. Lemmon Survey MPS 199511
2006 12 16.24652 02 35 16.18 +14 00 59.9 21.2 V G96 – Mt. Lemmon Survey MPS 199511
2006 12 16.25094 02 35 16.11 +14 01 00.3 21.3 V G96 – Mt. Lemmon Survey MPS 199511
2008 02 08.26143 11 01 47.28 +16 06 30.4   291 – LPL/Spacewatch II MPS 239162
2008 02 08.26699 11 01 46.93 +16 06 33.4   291 – LPL/Spacewatch II MPS 239162
2008 02 08.27832 11 01 46.49 +16 06 37.2   291 – LPL/Spacewatch II MPS 239162
2008 02 08.39575 11 01 41.52 +16 07 18.6 21.4 V G96 – Mt. Lemmon Survey MPS 239162
2008 02 08.40313 11 01 41.16 +16 07 20.9 21.6 V G96 – Mt. Lemmon Survey MPS 239162
2008 02 08.41058 11 01 40.87 +16 07 23.8 21.4 V G96 – Mt. Lemmon Survey MPS 239162
2008 02 08.41800 11 01 40.54 +16 07 26.5 21.2 V G96 – Mt. Lemmon Survey MPS 239162
2008 02 14.31874 10 57 19.51 +16 42 25.0 20.5 V G96 – Mt. Lemmon Survey MPS 239162
2008 02 14.32477 10 57 19.22 +16 42 27.1 20.5 V G96 – Mt. Lemmon Survey MPS 239162
2008 02 14.33077 10 57 18.90 +16 42 29.6 20.3 V G96 – Mt. Lemmon Survey MPS 239162
2008 02 14.33683 10 57 18.61 +16 42 31.6 20.4 V G96 – Mt. Lemmon Survey MPS 239162
2008 02 28.37197 10 45 13.53 +18 00 21.8 20.1 V G96 – Mt. Lemmon Survey MPS 239498
2008 02 28.37812 10 45 13.21 +18 00 23.5 20.1 V G96 – Mt. Lemmon Survey MPS 239498
2008 02 28.38419 10 45 12.85 +18 00 25.3 20.0 V G96 – Mt. Lemmon Survey MPS 239498
2008 02 28.39028 10 45 12.52 +18 00 27.1 20.2 V G96 – Mt. Lemmon Survey MPS 239498
2008 04 08.21093 10 19 01.45 +19 07 45.9 21.2 V G96 – Mt. Lemmon Survey MPS 245792
2008 04 08.21788 10 19 01.34 +19 07 45.1 21.4 V G96 – Mt. Lemmon Survey MPS 245792
2008 04 08.22466 10 19 01.23 +19 07 44.2 21.1 V G96 – Mt. Lemmon Survey MPS 245792
2008 04 08.23149 10 19 01.12 +19 07 43.7 21.3 V G96 – Mt. Lemmon Survey MPS 245792
2011 12 28.34792 07 38 44.73 +27 56 25.0 20.7 V G96 – Mt. Lemmon Survey MPS 407172
2011 12 28.35653 07 38 44.26 +27 56 27.9 20.7 V G96 – Mt. Lemmon Survey MPS 407172
2011 12 28.36516 07 38 43.76 +27 56 29.9 20.9 V G96 – Mt. Lemmon Survey MPS 407172
2011 12 28.37387 07 38 43.22 +27 56 31.8 21.3 V G96 – Mt. Lemmon Survey MPS 407172
2012 01 14.26375 07 21 41.25 +29 03 23.0 20.7 V G96 – Mt. Lemmon Survey MPS 407733
2012 01 14.27069 07 21 40.82 +29 03 24.4 20.9 V G96 – Mt. Lemmon Survey MPS 407733
2012 01 14.27762 07 21 40.35 +29 03 25.5 20.8 V G96 – Mt. Lemmon Survey MPS 407733
2012 01 14.28453 07 21 39.92 +29 03 27.0 21.2 V G96 – Mt. Lemmon Survey MPS 407733
2012 01 19.19891 07 16 38.46 +29 17 36.4 20.6 V G96 – Mt. Lemmon Survey MPS 407733
2012 01 19.20684 07 16 37.95 +29 17 37.7 20.6 V G96 – Mt. Lemmon Survey MPS 407733
2012 01 19.21444 07 16 37.48 +29 17 38.8 20.6 V G96 – Mt. Lemmon Survey MPS 407733
2012 01 19.22204 07 16 37.02 +29 17 39.8 20.6 V G96 – Mt. Lemmon Survey MPS 407733
2012 02 01.16681 07 04 59.34 +29 40 47.7 20.9 V G96 – Mt. Lemmon Survey MPS 410179
2012 02 01.17449 07 04 59.01 +29 40 48.7 20.8 V G96 – Mt. Lemmon Survey MPS 410179
2012 02 01.18210 07 04 58.62 +29 40 48.9 21.2 V G96 – Mt. Lemmon Survey MPS 410179
2012 02 01.18968 07 04 58.26 +29 40 49.2 21.0 V G96 – Mt. Lemmon Survey MPS 410179
2013 04 13.46368 14 19 45.247 -08 44 52.04 20.8 w F51 – Pan-STARRS 1, Haleakala MPS 464959
2013 04 13.47758 14 19 44.523 -08 44 49.42 20.9 w F51 – Pan-STARRS 1, Haleakala MPS 464959
2013 04 13.49146 14 19 43.798 -08 44 47.08 20.8 w F51 – Pan-STARRS 1, Haleakala MPS 464959
2013 05 03.37787 14 02 12.646 -07 49 15.43 20.6 w F51 – Pan-STARRS 1, Haleakala MPS 466789
2013 05 03.40499 14 02 11.190 -07 49 11.65 20.6 w F51 – Pan-STARRS 1, Haleakala MPS 466789
2013 05 03.41854 14 02 10.465 -07 49 09.62 20.7 w F51 – Pan-STARRS 1, Haleakala MPS 466789
2014 06 27.51740 21 38 26.431 -21 59 32.65 21.5 w F51 – Pan-STARRS 1, Haleakala MPS 521215
2014 06 27.51806 21 38 26.433 -21 59 32.96 21.7 w F51 – Pan-STARRS 1, Haleakala MPS 521215
2014 06 27.52910 21 38 26.287 -21 59 35.89 21.5 w F51 – Pan-STARRS 1, Haleakala MPS 521215
2014 06 27.52976 21 38 26.268 -21 59 35.93 21.5 w F51 – Pan-STARRS 1, Haleakala MPS 521215
2014 06 27.54078 21 38 26.112 -21 59 38.62 21.5 w F51 – Pan-STARRS 1, Haleakala MPS 521215
2014 06 27.54144 21 38 26.109 -21 59 38.71 21.8 w F51 – Pan-STARRS 1, Haleakala MPS 521215
2014 06 27.55246 21 38 25.969 -21 59 41.72 21.6 w F51 – Pan-STARRS 1, Haleakala MPS 521215
2014 07 29.45629 21 20 30.106 -24 43 24.24 20.8 w F51 – Pan-STARRS 1, Haleakala MPS 525335
2014 07 29.46684 21 20 29.537 -24 43 27.69 20.8 w F51 – Pan-STARRS 1, Haleakala MPS 525335
2014 07 29.47739 21 20 28.968 -24 43 31.02 20.8 w F51 – Pan-STARRS 1, Haleakala MPS 525335
2014 07 29.48791 21 20 28.394 -24 43 34.24 20.9 w F51 – Pan-STARRS 1, Haleakala MPS 525335
2014 07 30.47847 21 19 36.986 -24 48 44.21 21.0 w F51 – Pan-STARRS 1, Haleakala MPS 525335
2014 07 30.48927 21 19 36.400 -24 48 47.43 20.9 w F51 – Pan-STARRS 1, Haleakala MPS 525335
2014 07 30.50006 21 19 35.803 -24 48 50.94 20.9 w F51 – Pan-STARRS 1, Haleakala MPS 525335
2014 07 30.51086 21 19 35.221 -24 48 54.25 21.0 w F51 – Pan-STARRS 1, Haleakala MPS 525335
2015 11 21.34578 03 56 48.27 +19 55 57.7 20.1 V G96 – Mt. Lemmon Survey MPS 653273
2015 11 21.35085 03 56 47.95 +19 55 56.4 21.1 V G96 – Mt. Lemmon Survey MPS 653273
2015 11 21.35595 03 56 47.64 +19 55 56.1 20.5 V G96 – Mt. Lemmon Survey MPS 653273
2015 11 21.36101 03 56 47.24 +19 55 55.9 20.1 V G96 – Mt. Lemmon Survey MPS 653273
2015 12 08.22314 03 40 25.76 +19 44 35.8 20.6 V G96 – Mt. Lemmon Survey MPS 659436
2015 12 08.22825 03 40 25.49 +19 44 35.6 20.8 V G96 – Mt. Lemmon Survey MPS 659436
2015 12 08.23336 03 40 25.21 +19 44 35.5 21.5 V G96 – Mt. Lemmon Survey MPS 659436
2015 12 08.23847 03 40 24.95 +19 44 35.8 21.3 V G96 – Mt. Lemmon Survey MPS 659436
2015 12 13.23565 03 36 16.143 +19 42 02.12 20.9 w F51 – Pan-STARRS 1, Haleakala MPS 662461
2015 12 13.24861 03 36 15.526 +19 42 01.78 20.8 w F51 – Pan-STARRS 1, Haleakala MPS 662461
2015 12 13.26160 03 36 14.891 +19 42 01.60 20.8 w F51 – Pan-STARRS 1, Haleakala MPS 662461
2016 01 02.13504 03 25 49.51 +19 45 24.8 21.0 V G96 – Mt. Lemmon Survey MPS 667962
2016 01 02.14114 03 25 49.41 +19 45 25.1 21.1 V G96 – Mt. Lemmon Survey MPS 667962
2016 01 02.14724 03 25 49.27 +19 45 25.8 21.0 V G96 – Mt. Lemmon Survey MPS 667962
2016 01 02.15333 03 25 49.18 +19 45 26.1 21.4 V G96 – Mt. Lemmon Survey MPS 667962
2017 01 30.48294 11 55 39.316 +09 33 31.49 21.5 w F51 – Pan-STARRS 1, Haleakala MPS 765522
2017 01 30.50676 11 55 39.033 +09 33 36.66 21.4 w F51 – Pan-STARRS 1, Haleakala MPS 765522
2017 01 30.51876 11 55 38.865 +09 33 39.58 21.4 w F51 – Pan-STARRS 1, Haleakala MPS 765522
2017 03 04.49997 11 36 48.936 +12 21 42.20 20.7 w F51 – Pan-STARRS 1, Haleakala MPS 777419
2017 03 04.53628 11 36 47.017 +12 21 53.76 20.7 w F51 – Pan-STARRS 1, Haleakala MPS 777419
2017 03 04.54809 11 36 46.393 +12 21 57.54 20.7 w F51 – Pan-STARRS 1, Haleakala MPS 777419
2017 03 04.55990 11 36 45.772 +12 22 01.45 20.6 w F51 – Pan-STARRS 1, Haleakala MPS 777419
